[[{"header":{"parameterUnit":"m.s-1","parameterCategory":1,"la1":30.2991,"la2":30.254,"lo1":-89.0895,"lo2":-89.0444,"dy":0.0017,"dx":0.0017,"nx":28,"ny":28,"refTime":"2025-03-07T03:00:00:Z","depth":0,"parameterNumber":2,"parameterNumberName":"U-component_of_WINDS"},"data":[0,0,0,0,0,0,0,0,0,0,0,0,0,0,0,0,0,0,0,0,0,0,0,0,0,0,0,0,0,0,0,0,0,0,0,0,0,0,0,0,0,0,0,0,0,0,0,0,0,0,0,0,0,0,0,0,0,0,-2.3771,-2.3771,0,-2.3737,-2.3737,-2.3736,-2.3677,-2.3676,-2.3675,-2.3674,-2.3639,-2.3639,-2.3639,0,0,0,0,0,0,0,0,0,0,0,0,0,-2.3786,-2.3786,-2.3771,-2.377,-2.377,-2.3737,-2.3737,-2.3736,-2.3678,-2.3676,-2.3675,-2.3674,-2.3639,-2.3639,-2.3639,0,0,0,0,0,0,0,0,0,0,0,0,0,-2.3768,-2.3786,-2.3771,-2.3737,-2.3734,-2.3737,-2.3737,-2.3736,-2.3678,-2.3676,-2.3675,-2.3673,-2.3639,-2.3639,-2.3639,-2.3673,0,0,-2.364,-2.364,0,0,0,0,0,0,0,0,-2.3769,-2.3768,-2.3742,-2.3739,-2.3735,-2.371,-2.3729,-2.3715,-2.3678,-2.3699,-2.3674,-2.3672,-2.3664,-2.3662,-2.3659,-2.3671,-2.367,-2.364,-2.364,-2.364,-2.364,0,0,0,0,0,0,0,-2.3771,-2.3769,-2.3757,-2.3742,-2.3738,-2.3724,-2.3719,-2.3726,-2.3691,-2.3697,-2.3693,-2.369,-2.3662,-2.3659,-2.3658,-2.3669,-2.364,-2.364,-2.364,-2.364,-2.371,-2.3712,0,0,0,0,0,0,-2.3777,-2.377,-2.3758,-2.3756,-2.3749,-2.3725,-2.372,-2.372,-2.3691,-2.3685,-2.3691,-2.3687,-2.366,-2.3658,-2.3656,-2.3695,-2.364,-2.364,-2.364,-2.3708,-2.371,-2.3712,0,0,0,0,0,0,-2.3777,-2.3776,-2.376,-2.3762,-2.3759,-2.3726,-2.3726,-2.372,-2.3717,-2.3686,-2.368,-2.3695,-2.3658,-2.3656,-2.367,-2.3693,-2.364,-2.364,-2.3706,-2.3709,-2.3711,-2.3773,0,0,0,0,0,0,-2.3778,-2.3777,-2.3789,-2.3763,-2.3759,-2.3774,-2.3728,-2.372,-2.3718,-2.3712,-2.3688,-2.3682,-2.3657,-2.367,-2.367,-2.3692,-2.364,-2.3704,-2.3707,-2.371,-2.3769,-2.3778,-2.3785,0,0,0,0,0,-2.3779,-2.3807,-2.379,-2.3789,-2.3774,-2.3775,-2.3773,-2.3743,-2.372,-2.3732,-2.3713,-2.3683,-2.3691,-2.3672,-2.3671,-2.3694,-2.3702,-2.3706,-2.371,-2.3765,-2.3776,-2.3785,0,0,0,0,0,0,-2.3836,-2.3803,-2.3784,-2.3804,-2.3793,-2.3765,-2.378,-2.3755,-2.375,-2.3745,-2.3708,-2.3703,-2.3722,-2.3709,-2.3689,-2.3727,-2.3692,-2.3696,-2.3734,-2.3744,-2.3752,-2.3755,-2.364,0,0,0,0,0,-2.3851,-2.3855,-2.3826,-2.3847,-2.3843,-2.3813,-2.3812,-2.379,-2.3777,-2.3772,-2.3753,-2.3741,-2.3741,-2.3742,-2.374,-2.3767,-2.3762,-2.3783,-2.3791,-2.3798,-2.3802,-2.3817,-2.3826,-2.3725,-2.3725,-2.3725,0,0,-2.3882,-2.3865,-2.3869,-2.3859,-2.3847,-2.3853,-2.3809,-2.3816,-2.382,-2.3773,-2.3785,-2.3771,-2.3756,-2.3777,-2.3785,-2.3767,-2.3829,-2.3803,-2.3808,-2.3809,-2.3822,-2.3832,-2.384,-2.3728,-2.3728,-2.3727,0,0,-2.3942,-2.3929,-2.3946,-2.3936,-2.392,-2.39,-2.3904,-2.3881,-2.387,-2.3882,-2.3847,-2.3852,-2.3852,-2.3843,-2.3838,-2.3897,-2.3871,-2.3898,-2.394,-2.3955,-2.3963,-2.397,-2.3992,-2.4001,-2.3902,-2.3902,-2.3902,0,-2.3983,-2.3989,-2.3958,-2.3968,-2.3965,-2.3923,-2.3941,-2.3933,-2.3917,-2.3916,-2.3896,-2.3897,-2.3883,-2.3902,-2.3917,-2.3914,-2.3919,-2.39,-2.3965,-2.3971,-2.3977,-2.3998,-2.4006,-2.3905,-2.3905,-2.3905,-2.3904,0,-2.4041,-2.4046,-2.4062,-2.4049,-2.4048,-2.4061,-2.4032,-2.4035,-2.4014,-2.3996,-2.401,-2.3993,-2.3987,-2.399,-2.3969,-2.4007,-2.3997,-2.3971,-2.3936,-2.3991,-2.401,-2.4017,-2.391,-2.3909,-2.3908,-2.3907,0,0,-2.4134,-2.4105,-2.4111,-2.4106,-2.4086,-2.409,-2.4103,-2.4098,-2.4102,-2.4092,-2.4103,-2.4105,-2.4082,-2.4077,-2.4055,-2.4068,-2.4118,-2.4041,-2.404,-2.4057,-2.4161,-2.418,-2.419,-2.41,-2.4102,-2.4103,-2.4162,0,-2.419,-2.421,-2.4183,-2.4209,-2.4215,-2.4177,-2.4188,-2.4177,-2.4162,-2.4165,-2.4147,-2.415,-2.4119,-2.4116,-2.4127,-2.411,-2.4138,-2.4105,-2.411,-2.4111,-2.4116,-2.42,-2.422,-2.4277,-2.4169,-2.4171,-2.4172,0,-2.4257,-2.4253,-2.428,-2.4261,-2.4262,-2.4273,-2.4268,-2.427,-2.4259,-2.4246,-2.4242,-2.4216,-2.4228,-2.4194,-2.4211,-2.4189,-2.4189,-2.4181,-2.4183,-2.4182,-2.4145,-2.4202,-2.4294,-2.4303,-2.4183,-2.4182,-2.4181,0,-2.4324,-2.4325,-2.4342,-2.4338,-2.4316,-2.4324,-2.4316,-2.4302,-2.4302,-2.4297,-2.4297,-2.4294,-2.4292,-2.4291,-2.4265,-2.4243,-2.4286,-2.4249,-2.4276,-2.4277,-2.4287,-2.4287,-2.4381,-2.4287,-2.4287,-2.4287,-2.4286,0,-2.439,-2.4408,-2.4372,-2.4382,-2.4402,-2.4372,-2.4392,-2.4379,-2.4368,-2.4376,-2.4342,-2.4351,-2.4316,-2.4321,-2.4301,-2.4318,-2.4318,-2.4309,-2.4303,-2.4312,-2.4313,-2.4312,-2.4308,-2.4289,-2.4288,-2.4288,-2.4288,0,-2.4468,-2.4444,-2.446,-2.4438,-2.4433,-2.4449,-2.4431,-2.444,-2.4423,-2.4433,-2.4434,-2.4407,-2.4411,-2.4386,-2.4385,-2.4371,-2.4399,-2.4386,-2.4403,-2.44,-2.4429,-2.4427,-2.4526,-2.4538,-2.4436,-2.4437,-2.4438,0,-2.4511,-2.4525,-2.4505,-2.4508,-2.4501,-2.4506,-2.4507,-2.4477,-2.4479,-2.4468,-2.4479,-2.448,-2.4479,-2.4488,-2.4469,-2.4468,-2.4456,-2.4491,-2.4455,-2.4464,-2.4457,-2.4457,-2.4459,-2.4498,-2.4499,-2.45,-2.4501,0,-2.4591,-2.458,-2.4581,-2.458,-2.4581,-2.4578,-2.4573,-2.4577,-2.4546,-2.4549,-2.4553,-2.4553,-2.4553,-2.4555,-2.4551,-2.4542,-2.4517,-2.4513,-2.4519,-2.4528,-2.4538,-2.4534,-2.4424,-2.451,-2.4509,-2.4509,-2.4508,-2.4508,-2.4654,-2.4665,-2.4653,-2.4657,-2.465,-2.4647,-2.4655,-2.464,-2.4643,-2.4641,-2.4623,-2.4631,-2.4621,-2.4613,-2.4607,-2.4613,-2.4596,-2.4605,-2.4608,-2.4611,-2.4617,-2.4537,-2.4612,-2.4612,-2.4611,-2.4611,-2.4611,0,-2.4733,-2.4725,-2.4728,-2.4723,-2.4726,-2.4702,-2.4696,-2.47,-2.4708,-2.47,-2.4701,-2.4707,-2.471,-2.4691,-2.4692,-2.47,-2.4689,-2.4702,-2.4701,-2.47,-2.4631,-2.4626,-2.4711,-2.4711,-2.4711,-2.4711,-2.4711,-2.4711,-2.4775,-2.4793,-2.478,-2.4795,-2.4786,-2.4794,-2.4793,-2.479,-2.4784,-2.4792,-2.4794,-2.4783,-2.4771,-2.4771,-2.4773,-2.4768,-2.477,-2.4787,-2.4778,-2.4714,-2.4704,-2.4695,-2.469,-2.4787,-2.4787,-2.4846,-2.4846,-2.4847]},{"header":{"parameterUnit":"m.s-1","parameterCategory":1,"la1":30.2991,"la2":30.254,"lo1":-89.0895,"lo2":-89.0444,"dy":0.0017,"dx":0.0017,"nx":28,"ny":28,"refTime":"2025-03-07T03:00:00:Z","depth":0,"parameterNumber":3,"parameterNumberName":"V-component_of_WINDS"},"data":[0,0,0,0,0,0,0,0,0,0,0,0,0,0,0,0,0,0,0,0,0,0,0,0,0,0,0,0,0,0,0,0,0,0,0,0,0,0,0,0,0,0,0,0,0,0,0,0,0,0,0,0,0,0,0,0,0,0,-0.1403,-0.1402,0,-0.1332,-0.1331,-0.133,-0.1303,-0.1303,-0.1303,-0.1304,-0.1232,-0.123,-0.1228,0,0,0,0,0,0,0,0,0,0,0,0,0,-0.1517,-0.1515,-0.1403,-0.1402,-0.1401,-0.1332,-0.1331,-0.133,-0.1303,-0.1303,-0.1303,-0.1304,-0.1233,-0.1231,-0.1228,0,0,0,0,0,0,0,0,0,0,0,0,0,-0.1459,-0.1515,-0.1403,-0.1379,-0.1376,-0.1332,-0.1331,-0.1329,-0.1303,-0.1303,-0.1303,-0.1304,-0.1234,-0.1231,-0.1228,-0.1202,0,0,-0.1218,-0.1217,0,0,0,0,0,0,0,0,-0.1462,-0.1455,-0.1384,-0.1381,-0.1377,-0.1326,-0.1345,-0.1287,-0.1303,-0.1331,-0.1304,-0.1304,-0.1263,-0.1258,-0.1244,-0.1199,-0.1196,-0.1218,-0.1216,-0.1215,-0.1214,0,0,0,0,0,0,0,-0.1466,-0.1458,-0.1375,-0.1383,-0.1379,-0.1373,-0.1365,-0.1334,-0.1296,-0.1328,-0.1326,-0.1318,-0.1262,-0.1247,-0.1242,-0.1195,-0.1218,-0.1215,-0.1213,-0.1212,-0.1126,-0.1125,0,0,0,0,0,0,-0.1474,-0.1461,-0.1377,-0.1372,-0.1421,-0.137,-0.1361,-0.1343,-0.1297,-0.129,-0.1318,-0.1317,-0.1252,-0.1246,-0.1239,-0.1207,-0.1215,-0.1212,-0.121,-0.1126,-0.1126,-0.1125,0,0,0,0,0,0,-0.1477,-0.1467,-0.138,-0.1416,-0.1405,-0.1368,-0.1347,-0.1341,-0.1326,-0.1289,-0.1282,-0.1309,-0.1252,-0.1244,-0.1212,-0.1204,-0.121,-0.1207,-0.1127,-0.1126,-0.1125,-0.1141,0,0,0,0,0,0,-0.148,-0.1468,-0.1457,-0.1416,-0.1403,-0.1353,-0.1346,-0.1339,-0.132,-0.1319,-0.1279,-0.1273,-0.1252,-0.1216,-0.1209,-0.12,-0.1205,-0.1127,-0.1126,-0.1126,-0.1141,-0.1141,-0.1141,0,0,0,0,0,-0.1484,-0.1465,-0.1457,-0.1447,-0.1389,-0.1352,-0.1345,-0.132,-0.132,-0.1309,-0.1285,-0.1274,-0.1206,-0.1213,-0.1204,-0.1194,-0.1127,-0.1126,-0.1126,-0.1141,-0.1141,-0.1141,0,0,0,0,0,0,-0.1506,-0.1459,-0.145,-0.1416,-0.1388,-0.1348,-0.1333,-0.1321,-0.1293,-0.1293,-0.1265,-0.1256,-0.1226,-0.1207,-0.1216,-0.1168,-0.1166,-0.1163,-0.1181,-0.1181,-0.1181,-0.1186,-0.1202,0,0,0,0,0,-0.1507,-0.1481,-0.1441,-0.1416,-0.1402,-0.137,-0.1353,-0.1337,-0.1307,-0.1296,-0.1269,-0.1241,-0.1214,-0.1196,-0.1169,-0.1138,-0.113,-0.1127,-0.1127,-0.1127,-0.1125,-0.1109,-0.1107,-0.1122,-0.1122,-0.1122,0,0,-0.1509,-0.148,-0.1465,-0.1419,-0.1396,-0.137,-0.1361,-0.1333,-0.1314,-0.1292,-0.126,-0.1239,-0.1206,-0.1175,-0.116,-0.1158,-0.1119,-0.1126,-0.1127,-0.1124,-0.1108,-0.1106,-0.1105,-0.1121,-0.1122,-0.1122,0,0,-0.1499,-0.1474,-0.145,-0.1427,-0.1391,-0.137,-0.1365,-0.1326,-0.1311,-0.1279,-0.1262,-0.1239,-0.1191,-0.1169,-0.1151,-0.1133,-0.1122,-0.1125,-0.1125,-0.1109,-0.1108,-0.1107,-0.1101,-0.1099,-0.1123,-0.1123,-0.1123,0,-0.1506,-0.1465,-0.144,-0.1413,-0.1394,-0.1372,-0.1349,-0.1327,-0.1285,-0.1272,-0.1271,-0.1212,-0.1188,-0.1151,-0.1147,-0.1133,-0.1126,-0.113,-0.111,-0.1109,-0.1107,-0.1101,-0.1099,-0.1124,-0.1124,-0.1124,-0.1124,0,-0.1476,-0.1448,-0.1433,-0.1393,-0.1372,-0.1347,-0.1318,-0.13,-0.1286,-0.1265,-0.1233,-0.1203,-0.117,-0.116,-0.1146,-0.1121,-0.1122,-0.1116,-0.1113,-0.1107,-0.1101,-0.1098,-0.1125,-0.1125,-0.1124,-0.1124,0,0,-0.1478,-0.1423,-0.1418,-0.14,-0.1359,-0.1337,-0.1312,-0.1279,-0.1264,-0.1236,-0.1214,-0.1175,-0.1169,-0.1149,-0.1133,-0.1118,-0.1107,-0.1114,-0.1113,-0.1114,-0.1079,-0.1084,-0.1081,-0.1099,-0.1098,-0.1098,-0.1082,0,-0.1463,-0.1415,-0.1392,-0.1355,-0.1329,-0.1309,-0.1287,-0.126,-0.124,-0.1216,-0.1195,-0.1167,-0.1162,-0.1149,-0.1135,-0.1111,-0.1099,-0.1112,-0.1079,-0.1078,-0.1088,-0.1078,-0.1083,-0.1069,-0.1079,-0.1079,-0.1078,0,-0.1439,-0.141,-0.1371,-0.1333,-0.1322,-0.1302,-0.127,-0.1247,-0.1217,-0.1203,-0.1181,-0.1165,-0.1138,-0.1138,-0.1101,-0.1111,-0.1096,-0.1082,-0.1081,-0.1077,-0.1078,-0.1074,-0.1064,-0.1062,-0.1074,-0.1075,-0.1075,0,-0.1444,-0.1396,-0.1366,-0.1351,-0.1307,-0.1294,-0.1275,-0.1244,-0.1226,-0.1198,-0.1186,-0.1156,-0.114,-0.1117,-0.1093,-0.1095,-0.1059,-0.1057,-0.1048,-0.1048,-0.1041,-0.1042,-0.1028,-0.1031,-0.1031,-0.1031,-0.1031,0,-0.143,-0.1407,-0.1368,-0.135,-0.1324,-0.1297,-0.1272,-0.1252,-0.1225,-0.1203,-0.1184,-0.1164,-0.1133,-0.111,-0.1091,-0.1064,-0.1057,-0.1046,-0.1041,-0.1047,-0.1049,-0.1037,-0.1038,-0.1031,-0.1031,-0.1031,-0.1031,0,-0.1432,-0.1405,-0.1372,-0.1333,-0.1322,-0.1305,-0.1271,-0.1253,-0.1233,-0.1205,-0.1197,-0.1165,-0.1136,-0.1111,-0.1073,-0.106,-0.1032,-0.1026,-0.1042,-0.104,-0.1032,-0.1034,-0.1011,-0.1007,-0.1013,-0.1013,-0.1013,0,-0.1425,-0.1406,-0.1365,-0.1349,-0.133,-0.1304,-0.1285,-0.1259,-0.124,-0.1204,-0.1191,-0.116,-0.1135,-0.109,-0.1064,-0.1035,-0.1028,-0.1022,-0.1024,-0.1031,-0.1028,-0.103,-0.1028,-0.1022,-0.1023,-0.1023,-0.1023,0,-0.1415,-0.1403,-0.1376,-0.1345,-0.1323,-0.1297,-0.1271,-0.1259,-0.1227,-0.1208,-0.1178,-0.1158,-0.1119,-0.1089,-0.1057,-0.1039,-0.1026,-0.1022,-0.1019,-0.1025,-0.1035,-0.103,-0.1043,-0.1023,-0.1023,-0.1023,-0.1023,-0.1023,-0.1412,-0.1395,-0.1364,-0.1335,-0.1312,-0.1288,-0.1269,-0.1246,-0.1221,-0.1186,-0.1173,-0.1142,-0.1113,-0.1069,-0.105,-0.1026,-0.1024,-0.1019,-0.1017,-0.1017,-0.1018,-0.1039,-0.1021,-0.1021,-0.102,-0.102,-0.102,0,-0.1402,-0.138,-0.1354,-0.1318,-0.1295,-0.1284,-0.1255,-0.1237,-0.121,-0.1184,-0.1159,-0.1125,-0.1096,-0.1068,-0.1038,-0.1024,-0.1018,-0.1018,-0.1018,-0.1014,-0.1022,-0.1028,-0.1023,-0.1023,-0.1023,-0.1023,-0.1023,-0.1023,-0.1394,-0.1364,-0.1348,-0.1308,-0.1287,-0.1256,-0.1241,-0.1219,-0.1197,-0.116,-0.1136,-0.1117,-0.109,-0.1058,-0.1031,-0.1024,-0.1014,-0.1015,-0.1006,-0.1014,-0.1014,-0.1014,-0.1019,-0.1013,-0.1013,-0.1001,-0.1001,-0.1001]}]]